Hoquiam, WA
on Saturday, December 8, 2012

Saturday
Previous Day Next Day
Daily Summary
 ActualAverageRecord
Temperature
Mean Temperature °F / °C 42°F / 6°C  
Max Temperature 45°F / 7°C 47°F / 8°C 55°F / 12°C (1957)
Min Temperature 37°F / 3°C 37°F / 3°C 9°F / -12°C (1972)
Degree Days
Heating Degree Days 24 23  
Month to date heating degree days 182  
Cooling Degree Days 0 0  
Month to date cooling degree days 0  
Year to date cooling degree days 23  
Moisture
Dew Point 38°F / 3°C   
Average Humidity 92    
Maximum Humidity 100    
Minimum Humidity 76    
Precipitation
Precipitation 0.12 in / 3.05 cm 0.32 in / 8.13 cm 2.18 in / 5.54 cm (1956)
Month to date precipitation 2.70  
Year to date precipitation 60.29  
Wind
Wind Speed 2 mph / 3 km/h   
Max Wind Speed 8 mph / 13 km/h   
Max Gust Speed mph / km/h   
Visibility 10 miles / 15 kilometers   
Events Rain   

Key: T is trace of precipitation, MM is missing value
Source: NWS Daily Summary
Time(PST)TemperatureDew PointHumidity Pressure Visibility Wind DirectionWind SpeedGust SpeedPrecipitationEvents Conditions
12:01 AM 39.2°F / 4.0°C 37.4°F / 3.0°C 93% 30.20 in / 1022.6 hPa 9.0 miles / 14.5 kilometers Calm Calm - 0.01 in / 0.3 cm Rain Light Rain
12:53 AM 39.0°F / 3.9°C 37.0°F / 2.8°C 93% 30.20 in / 1022.7 hPa 10.0 miles / 16.1 kilometers ENE 3.5 mph / 5.6 km/h - 0.01 in / 0.3 cm   Mostly Cloudy
1:19 AM 39.2°F / 4.0°C 37.4°F / 3.0°C 93% 30.20 in / 1022.6 hPa 6.0 miles / 9.7 kilometers Calm Calm - 0.01 in / 0.3 cm Rain Light Rain
1:30 AM 39.2°F / 4.0°C 37.4°F / 3.0°C 93% 30.20 in / 1022.6 hPa 10.0 miles / 16.1 kilometers NE 4.6 mph / 7.4 km/h - 0.01 in / 0.3 cm   Overcast
1:53 AM 39.0°F / 3.9°C 37.9°F / 3.3°C 96% 30.21 in / 1022.9 hPa 10.0 miles / 16.1 kilometers East 3.5 mph / 5.6 km/h - 0.01 in / 0.3 cm   Overcast
2:19 AM 39.2°F / 4.0°C 37.4°F / 3.0°C 93% 30.20 in / 1022.6 hPa 6.0 miles / 9.7 kilometers Variable 3.5 mph / 5.6 km/h - 0.01 in / 0.3 cm Rain Light Rain
2:26 AM 39.2°F / 4.0°C 37.4°F / 3.0°C 93% 30.20 in / 1022.6 hPa 6.0 miles / 9.7 kilometers East 3.5 mph / 5.6 km/h - 0.02 in / 0.5 cm Rain Light Rain
2:44 AM 37.4°F / 3.0°C 35.6°F / 2.0°C 93% 30.20 in / 1022.6 hPa 10.0 miles / 16.1 kilometers East 4.6 mph / 7.4 km/h - 0.02 in / 0.5 cm   Partly Cloudy
2:53 AM 37.9°F / 3.3°C 37.0°F / 2.8°C 97% 30.21 in / 1022.8 hPa 10.0 miles / 16.1 kilometers ENE 3.5 mph / 5.6 km/h - 0.02 in / 0.5 cm   Partly Cloudy
3:53 AM 39.0°F / 3.9°C 37.9°F / 3.3°C 96% 30.21 in / 1022.9 hPa 10.0 miles / 16.1 kilometers Calm Calm - 0.00 in / 0.0 cm   Overcast
4:05 AM 37.4°F / 3.0°C 37.4°F / 3.0°C 100% 30.19 in / 1022.2 hPa 8.0 miles / 12.9 kilometers Calm Calm - N/A   Overcast
4:53 AM 37.9°F / 3.3°C 37.0°F / 2.8°C 97% 30.21 in / 1022.8 hPa 9.0 miles / 14.5 kilometers Calm Calm - 0.01 in / 0.3 cm   Overcast
5:53 AM 37.0°F / 2.8°C 37.0°F / 2.8°C 100% 30.22 in / 1023.1 hPa 10.0 miles / 16.1 kilometers Calm Calm - 0.01 in / 0.3 cm   Overcast
6:53 AM 37.9°F / 3.3°C 37.0°F / 2.8°C 97% 30.23 in / 1023.5 hPa 10.0 miles / 16.1 kilometers Calm Calm - N/A   Overcast
7:53 AM 37.9°F / 3.3°C 37.0°F / 2.8°C 97% 30.23 in / 1023.6 hPa 10.0 miles / 16.1 kilometers ENE 3.5 mph / 5.6 km/h - N/A   Overcast
8:43 AM 39.2°F / 4.0°C 37.4°F / 3.0°C 93% 30.24 in / 1023.9 hPa 10.0 miles / 16.1 kilometers Calm Calm - 0.00 in / 0.0 cm   Overcast
8:53 AM 39.9°F / 4.4°C 37.9°F / 3.3°C 93% 30.25 in / 1024.4 hPa 10.0 miles / 16.1 kilometers Calm Calm - 0.00 in / 0.0 cm   Overcast
9:14 AM 41.0°F / 5.0°C 37.4°F / 3.0°C 87% 30.25 in / 1024.3 hPa 10.0 miles / 16.1 kilometers Calm Calm - N/A   Overcast
9:53 AM 42.1°F / 5.6°C 39.0°F / 3.9°C 89% 30.28 in / 1025.2 hPa 10.0 miles / 16.1 kilometers Calm Calm - 0.00 in / 0.0 cm   Overcast
10:53 AM 43.0°F / 6.1°C 39.9°F / 4.4°C 89% 30.28 in / 1025.2 hPa 10.0 miles / 16.1 kilometers Calm Calm - N/A   Overcast
11:53 AM 44.1°F / 6.7°C 39.9°F / 4.4°C 85% 30.27 in / 1025.1 hPa 10.0 miles / 16.1 kilometers Calm Calm - N/A   Scattered Clouds
12:53 PM 45.0°F / 7.2°C 39.9°F / 4.4°C 82% 30.27 in / 1025.0 hPa 10.0 miles / 16.1 kilometers SW 5.8 mph / 9.3 km/h - N/A   Mostly Cloudy
1:53 PM 45.0°F / 7.2°C 39.9°F / 4.4°C 82% 30.27 in / 1025.1 hPa 10.0 miles / 16.1 kilometers SW 8.1 mph / 13.0 km/h - N/A   Mostly Cloudy
2:44 PM 42.8°F / 6.0°C 37.4°F / 3.0°C 81% 30.26 in / 1024.6 hPa 10.0 miles / 16.1 kilometers North 6.9 mph / 11.1 km/h - 0.01 in / 0.3 cm   Overcast
2:53 PM 43.0°F / 6.1°C 36.0°F / 2.2°C 76% 30.28 in / 1025.2 hPa 10.0 miles / 16.1 kilometers NNE 4.6 mph / 7.4 km/h - 0.01 in / 0.3 cm   Overcast
3:53 PM 42.1°F / 5.6°C 37.9°F / 3.3°C 85% 30.30 in / 1025.8 hPa 10.0 miles / 16.1 kilometers North 6.9 mph / 11.1 km/h - 0.01 in / 0.3 cm Rain Light Rain
4:53 PM 41.0°F / 5.0°C 37.9°F / 3.3°C 89% 30.30 in / 1025.9 hPa 10.0 miles / 16.1 kilometers East 4.6 mph / 7.4 km/h - 0.01 in / 0.3 cm   Overcast
5:53 PM 41.0°F / 5.0°C 39.0°F / 3.9°C 93% 30.31 in / 1026.3 hPa 10.0 miles / 16.1 kilometers NE 3.5 mph / 5.6 km/h - 0.00 in / 0.0 cm   Overcast
6:53 PM 39.9°F / 4.4°C 39.0°F / 3.9°C 97% 30.32 in / 1026.5 hPa 10.0 miles / 16.1 kilometers NE 3.5 mph / 5.6 km/h - N/A   Overcast
7:53 PM 39.9°F / 4.4°C 39.0°F / 3.9°C 97% 30.33 in / 1027.0 hPa 10.0 miles / 16.1 kilometers Calm Calm - N/A   Overcast
8:53 PM 39.9°F / 4.4°C 39.0°F / 3.9°C 97% 30.34 in / 1027.2 hPa 10.0 miles / 16.1 kilometers ENE 5.8 mph / 9.3 km/h - 0.01 in / 0.3 cm Rain Light Rain
9:53 PM 39.9°F / 4.4°C 39.0°F / 3.9°C 97% 30.34 in / 1027.4 hPa 10.0 miles / 16.1 kilometers ENE 5.8 mph / 9.3 km/h - 0.01 in / 0.3 cm Rain Light Rain
10:53 PM 39.9°F / 4.4°C 39.0°F / 3.9°C 97% 30.35 in / 1027.5 hPa 10.0 miles / 16.1 kilometers ENE 6.9 mph / 11.1 km/h - 0.00 in / 0.0 cm Rain Light Rain
11:42 PM 39.2°F / 4.0°C 37.4°F / 3.0°C 93% 30.34 in / 1027.3 hPa 10.0 miles / 16.1 kilometers ENE 6.9 mph / 11.1 km/h - 0.01 in / 0.3 cm   Overcast
11:53 PM 39.9°F / 4.4°C 37.9°F / 3.3°C 93% 30.35 in / 1027.7 hPa 10.0 miles / 16.1 kilometers ENE 5.8 mph / 9.3 km/h - 0.01 in / 0.3 cm   Overcast
Moon Phase
Dec. 08 Dec. 13 Dec. 20 Dec. 28 Jan. 04
Sunrise:07:49 AM (PST) Moon Rise:02:03 AM (PST)12/8
Sunset:04:26 PM (PST) Moon Set:01:14 PM (PST)12/8

Copyright © 2014 The Weather Underground, Inc.